Notices

What's New in latest Release from April 7th, 2021:

- Updated Glossary, including Speed of Maximum Gust, and Total Hourly Precipitation

- Updated national and regional climate services offices contacts and prices information

- Addition of station inventory lists for 1981-2010, 1971-2000, and 1961-1990 Normals.

If you haven't already, please take our survey and provide feedback about our website: https://eccc.sondage-survey.ca/f/LanguageSelection.aspx?s=442ca660-fcf1-47c0-95a9-59707d6fd709

Hourly Data Report for August 07, 2003

TORONTO CITY
ONTARIO

43°40'00.000" N
79°24'00.000" W
112.50 m
6158355
71508
XTO

Download Data

Hourly Data (August 2003)
Hourly Data Report for August 7, 2003
TIME
LST
Temp Definition
°C
Dew Point Definition
°C
Rel Hum Definition
%
Precip. Amount Definition
mm

Wind Dir Definition
10's deg

Wind Spd Definition
km/h
Visibility Definition
km
Stn Press Definition
kPa
Hmdx Definition


Wind Chill Definition


Weather Definition


00:00 20.4 19.1 92   LegendMM LegendMM LegendMM 99.67 27   LegendNANA
01:00 20.1 19.2 95   LegendMM LegendMM LegendMM 99.67 27   LegendNANA
02:00 20.1 19.2 95   LegendMM LegendMM LegendMM 99.63 27   LegendNANA
03:00 19.5 18.5 94   LegendMM LegendMM LegendMM 99.64     LegendNANA
04:00 19.2 18.3 95   LegendMM LegendMM LegendMM 99.67     LegendNANA
05:00 19.4 18.4 94   LegendMM LegendMM LegendMM 99.68     LegendNANA
06:00 19.5 18.3 93   LegendMM LegendMM LegendMM 99.73     LegendNANA
07:00 20.1 18.1 88   LegendMM LegendMM LegendMM 99.77 26   LegendNANA
08:00 21.8 18.8 83   LegendMM LegendMM LegendMM 99.79 28   LegendNANA
09:00 22.4 18.9 81   LegendMM LegendMM LegendMM 99.80 29   LegendNANA
10:00 24.3 19.5 75   LegendMM LegendMM LegendMM 99.81 31   LegendNANA
11:00 25.5 19.2 68   LegendMM LegendMM LegendMM 99.83 32   LegendNANA
12:00 25.9 19.6 68   LegendMM LegendMM LegendMM 99.82 33   LegendNANA
13:00 25.9 18.9 65   LegendMM LegendMM LegendMM 99.80 33   LegendNANA
14:00 26.8 19.5 64   LegendMM LegendMM LegendMM 99.73 34   LegendNANA
15:00 27.9 20.1 63   LegendMM LegendMM LegendMM 99.67 36   LegendNANA
16:00 27.0 18.9 61   LegendMM LegendMM LegendMM 99.68 34   LegendNANA
17:00 25.7 18.8 66   LegendMM LegendMM LegendMM 99.67 32   LegendNANA
18:00 25.1 18.6 67   LegendMM LegendMM LegendMM 99.71 32   LegendNANA
19:00 23.9 18.3 71   LegendMM LegendMM LegendMM 99.75 30   LegendNANA
20:00 23.4 18.6 74   LegendMM LegendMM LegendMM 99.78 30   LegendNANA
21:00 23.5 18.5 74   LegendMM LegendMM LegendMM 99.84 30   LegendNANA
22:00 22.3 18.6 80   LegendMM LegendMM LegendMM 99.85 29   LegendNANA
23:00 22.9 19.1 79   LegendMM LegendMM LegendMM 99.84 30   LegendNANA

Notes on Data Quality.

Legend

  • E = Estimated
  • M = Missing
  • NA = Not Available*
  • [empty] = Indicates an unobserved value
Date modified: